This demonstration page uses our WeatherBlox Daily Observations layout. Learn more.

Left ArrowRight Arrow

41.86663, -103.66717

Hourly Observations for May 3, 2021

Temp ( °F °C ) Dew Point ( °F °C ) Humidity (%) Winds ( mph kmh ) Pressure ( in mb ) Visibility ( mi km ) Precip ( " mm )
12:53 am 00:53 Cloudy 48 8.9 39 3.9 71 71 N 13 20 29.83 1010 10 16.0934 N/A
1:53 am 01:53 Cloudy 48 8.9 39 3.9 71 71 N 15 24 29.84 1010 10 16.0934 N/A
2:53 am 02:53 Cloudy 48 8.9 37 2.8 66 66 N 16 26 29.85 1011 10 16.0934 N/A
3:53 am 03:53 Clear 46 7.8 36 2.2 68 68 N 17 28 29.87 1012 10 16.0934 N/A
4:53 am 04:53 Clear 45 7.2 35 1.7 68 68 N 10 17 29.91 1013 10 16.0934 N/A
5:53 am 05:53 Cloudy 45 7.2 36 2.2 71 71 N 12 19 29.94 1014 10 16.0934 N/A
6:08 am 06:08 Cloudy 45 7.2 36 2.2 71 71 N 12 19 30 1016 10 16.0934 N/A
6:53 am 06:53 Cloudy 45 7.2 35 1.7 68 68 NNE 12 19 29.98 1015 10 16.0934 N/A
7:53 am 07:53 Cloudy 47 8.3 36 2.2 66 66 NNE 15 24 30 1016 10 16.0934 N/A
8:53 am 08:53 Cloudy 50 10 36 2.2 59 59 NNE 21 33 29.98 1015 10 16.0934 N/A
9:32 am 09:32 Mostly Cloudy 50 10 33 0.6 52 52 N 20 31 29.99 1015 10 16.0934 N/A
9:53 am 09:53 Mostly Cloudy 52 11.1 34 1.1 50 50 NNE 21 33 30 1016 10 16.0934 N/A
10:53 am 10:53 Cloudy 49 9.4 32 undefined 52 52 NNE 20 31 30.04 1017 10 16.0934 N/A
11:53 am 11:53 Cloudy 50 10 32 undefined 50 50 NNE 16 26 30.04 1017 10 16.0934 N/A
12:53 pm 12:53 Cloudy 51 10.6 30 -1.1 44 44 NNE 16 26 30.04 1017 10 16.0934 N/A
1:53 pm 13:53 Cloudy 53 11.7 28 -2.2 38 38 NNE 17 28 30.03 1017 10 16.0934 N/A
2:53 pm 14:53 Mostly Cloudy 54 12.2 28 -2.2 37 37 NNE 9 15 30.03 1017 10 16.0934 N/A
3:53 pm 15:53 Cloudy 54 12.2 27 -2.8 35 35 NE 14 22 30.04 1017 10 16.0934 N/A
4:53 pm 16:53 Cloudy 53 11.7 28 -2.2 38 38 NE 13 20 30.06 1018 10 16.0934 N/A
5:53 pm 17:53 Cloudy 53 11.7 28 -2.2 38 38 ENE 5 7 30.07 1018 10 16.0934 N/A
6:53 pm 18:53 Cloudy 52 11.1 28 -2.2 40 40 ENE 7 11 30.08 1019 10 16.0934 N/A
7:53 pm 19:53 Mostly Cloudy 51 10.6 26 -3.3 38 38 NE 6 9 30.09 1019 10 16.0934 N/A
8:53 pm 20:53 Mostly Clear 45 7.2 28 -2.2 52 52 ENE 5 7 30.1 1019 10 16.0934 N/A
9:53 pm 21:53 Clear 41 5 27 -2.8 57 57 W 3 6 30.11 1020 10 16.0934 N/A
10:53 pm 22:53 Clear 41 5 28 -2.2 60 60 NW 6 9 30.14 1021 10 16.0934 N/A
11:53 pm 23:53 Clear 39 3.9 32 undefined 76 76 WNW 5 7 30.14 1021 10 16.0934 N/A

Powered by AerisWeather